DELTA 1 DEB, 2888

Orbit data source: Space-Track

DELTA 1 DEB, 2888 is space debris in LEO originally from a launch on Sat, 06 Nov 1965 UTC launched from the Air Force Eastern Test Range (AFETR). Debris objects in space refer to the collection of defunct objects orbiting the Earth. Examples of debris include non-operational satellites, rocket bodies, and fragments generated from explosions, collisions, or faulty payload assembly.

Loading next visibility...
DELTA 1 DEB details
Identifier
2888, 1965-089D
Orbit
LEO
Last TLE update2 weeks ago
Origin
Flag of USGSFC (US)
ManufacturerUnknown
MissionSpacecraft
Bus & MotorUnknown
MassUnknown
Launch date (UTC)
1965-11-06 (59 years ago)
Launch vehicleUnknown
Launch site
Air Force Eastern Test Range (AFETR)
Object type
Payload
Rocket body
Debris
Shape & HBRUnknown
Radar Cross SectionSmall (<0.1 m²)

Expand to show TLE details & history

TLE from 2 weeks ago
0 DELTA 1 DEB
1  2888U 65089D   25023.61252411 -.00000036  00000-0  25332-3 0  9996
2  2888  59.2070  43.1892 0715759 272.7491 190.1217 11.87418462514401
Epoch: 2025-01-23T14:42Z
Definitive object data (Epoch: 2025-01-23T14:42:02.083Z)
Latitude57.42459°
Longitude171.2696°
Altitude2,318.923 km
Speed6.533 km/s
True Right ascension10h 19m 51s
True Declination57° 17' 47"
Sunlit
Object was in full shadow at TLE epoch
Visualization TLE readout
Latitude-1.20018°
Longitude21.13131°
Altitude1,546.905 km
Speed7.177 km/s
Apparent Right ascension01h 54m 11s
Apparent Declination-21° 06' 24"
Sunlit
Object is in daylight
Visualization observer readout
Local Sidereal Time16:36:33
Azimuth73.623° E
Elevation-50.753°
Doppler factor1
Orbital elements
Apogee altitude2,317.964 km
Perigee altitude1,156.252 km
Semi-major axis8,115.245 km
Eccentricity0.0715759
Inclination59.207°
RAAN43.1892°
Arg. of periapsis272.7491°
True anomaly188.79741°
Mean anomaly190.1217°
Eccentric anomaly189.44848°
Mean motion2.96887 °/min
BSTAR0.00025332
Orbital period121.26 mins
Loading maneuver chart data...
Loading historical data...
Loading historical data...
Loading historical data...
Loading historical data...
Loading historical data...
Loading historical data...
Loading historical data...

DELTA 1 DEB Visibility forecast

Observer location: undefined°, undefined

Span
Click to sort rows by Start time (UTC) header in descending order
Start Az.
Max El. time (UTC)
Max El. Az.
Max El.
End time (UTC)
End Az.
20 mins2025-02-09 22:27:19.223Z180.002° SSW2025-02-09 22:36:19.223Z115.743° SE34.614°2025-02-09 22:47:19.223Z49.503° ENE
22 mins2025-02-10 00:33:19.223Z238.278° WSW2025-02-10 00:42:19.223Z306.638° NW42.296°2025-02-10 00:55:19.223Z39.305° NE
21 mins2025-02-10 02:43:19.223Z288.755° WNW2025-02-10 02:52:19.223Z343.501° N29.681°2025-02-10 03:04:19.223Z47.817° ENE
21 mins2025-02-10 04:54:19.223Z318.913° NNW2025-02-10 05:04:19.223Z17.509° NNE30.536°2025-02-10 05:15:19.223Z78.243° E
24 mins2025-02-10 07:02:19.223Z321.916° NNW2025-02-10 07:14:19.223Z50.498° ENE43.143°2025-02-10 07:26:19.223Z127.162° SE
20 mins2025-02-10 09:10:19.223Z307.543° NW2025-02-10 09:20:19.223Z248.638° W34.728°2025-02-10 09:30:19.223Z182.544° SSW
|